www.pogodaiklimat.ru

Погода и климат >> Архив погоды >> Ирак >> Basrah Airport


ПОГОДА в Basrah Airport

  • Прогноз погоды в Basrah Airport
  • Монитор погоды в Basrah Airport
  • Климат города

АРХИВ ПОГОДЫ в Basrah Airport

Время (UTC), дата Ветер
(напр.,м/с)
 
Видим.   Явления Облачность Т
(С)
Тd
(С)
f
(%)
Тe
(С)
Тes
(С)
Комфортность P
(гПа)
Po
(гПа)
Тmin
(С)
Tmax
(С)
R
(мм)
R24
(мм)
S
(см)
12 18.02 З 8 10 км ясно +24.6 +1.5 22 +23 +24 комфорт 1012.4 1012.0
15 18.02 штиль 0 5000 м пыль ясно +20.4 +1.6 29 +20 +20 1013.4 1013.0
18 18.02 штиль 0 10 км ясно +17.7 +3.1 38 +18 +18 1013.4 1013.0 +25.2
21 18.02 штиль 0 6000 м пыль 4/0
[Ac trans Ci sp]
+16.4 +4.6 45 +16 +16 1013.7 1014.0
00 19.02 ЮВ 3 6000 м пыль ясно +14.5 +4.9 52 +14 +14 1012.9 1013.0
06 19.02 ЮЗ 6 2000 м пыль 3/0
[Ac trans]
+18.6 +3.8 37 +18 +20 1014.8 1015.0 +13.3
09 19.02 ЮЗ 7 2500 м пыль 4/0
[Ci fib]
+22.3 +5.6 34 +23 +26 комфорт 1014.7 1015.0
12 19.02 З 5 8000 м пыль 3/3 1200 м
[Cu hum Ci fib]
+23.2 +5.2 31 +23 +25 комфорт 1013.8 1014.0
15 19.02 З 4 10 км ясно +18.5 +3.5 37 +19 +19 1015.4 1015.0
18 19.02 З 5 10 км ясно +13.7 +4.7 55 +12 +12 1016.8 1017.0 +23.8
21 19.02 СЗ 3 10 км ясно +11.9 +4.3 60 +10 +10 1017.0 1017.0
00 20.02 З 2 10 км ясно +7.4 +1.5 66 +6 +6 1017.0 1017.0
03 20.02 З 6 10 км ясно +5.9 +0.4 68 +1 +1 1017.6 1018.0
06 20.02 З 3 6000 м пыль 3/0
[Ci fib]
+15.0 +8.3 64 +14 +19 1018.2 1018.0 +5.5
09 20.02 ЮЗ 4 10 км 3/0
[Ci fib]
+21.7 +5.4 35 +22 +30 комфорт 1017.9 1018.0
12 20.02 З 2 10 км 8/3 900 м
[Cu med, cong Ac trans Ci sp]
+21.5 +4.2 32 +22 +24 комфорт 1015.8 1016.0
15 20.02 З 4 10 км 6/0
[Ac trans Ci fib]
+19.2 +4.3 37 +20 +20 1015.6 1016.0
18 20.02 СЗ 3 10 км 5/0
[Ac trans Ci fib]
+15.3 +4.0 47 +15 +15 1016.0 1016.0 +22.9
21 20.02 З 2 10 км 4/0
[Ci fib]
+13.9 +5.5 57 +14 +14 1015.3 1015.0
03 21.02 З 2 10 км 6/0
[Cs]
+13.6 +6.5 62 +13 +13 1015.6 1016.0
06 21.02 В 2 6000 м мгла 8/3 1200 м
[Sc Ac As]
+16.7 +8.3 58 +17 +19 1015.8 1016.0 +12.0
09 21.02 С 2 6000 м пыль 5/3 1200 м
[Cu hum Ac trans]
+23.8 +4.7 29 +24 +31 комфорт 1015.0 1015.0
12 21.02 СВ 3 8000 м пыль 4/0
[Ac trans Ci fib]
+25.0 +3.3 24 +24 +27 комфорт 1012.5 1013.0
15 21.02 В 4 8000 м пыль 4/0
[Ac trans Ci fib]
+22.0 +3.8 30 +22 +22 комфорт 1011.5 1012.0
18 21.02 ЮВ 3 10 км 6/0
[Ac trans Ci sp]
+18.1 +5.7 44 +18 +18 1012.5 1013.0 +25.7
21 21.02 ЮВ 3 10 км 4/0
[Ac trans Ci fib]
+16.8 +5.7 48 +17 +17 1011.1 1011.0
00 22.02 В 3 10 км 6/0
[Ac trans Ci sp]
+16.5 +7.3 54 +16 +16 1010.1 1010.0
03 22.02 В 4 10 км 5/3 1200 м
[Cu hum Ac trans Ci fib]
+17.0 +6.4 50 +17 +17 1011.0 1011.0
06 22.02 ЮВ 9 10 км 4/0
[Ac trans Ci fib]
+20.3 +9.3 49 +21 +22 комфорт 1011.5 1012.0 +15.4
09 22.02 ЮВ 13 4000 м пыльный позёмок 8/0
[Ac trans Ci sp]
+25.4 +10.2 38 +26 +26 жарко 1010.4 1010.0
12 22.02 ЮВ 9 3000 м пыльный позёмок 9/0
[Ac As Ci fib]
+26.1 +8.2 32 +26 +26 жарко 1009.2 1009.0
18 22.02 ЮВ 5 10 км ясно +18.0 +11.6 66 +18 +18 1010.7 1011.0 +26.9
21 22.02 ЮВ 3 10 км ясно +13.9 +9.2 73 +13 +13 1011.1 1011.0
00 23.02 штиль 0 10 км ясно +10.6 +6.0 73 +10 +10 1011.0 1011.0
06 23.02 штиль 0 6000 м мгла 6/0
[Ac trans Ci sp]
+17.4 +8.9 57 +17 +24 1012.7 1013.0 +8.4
09 23.02 ЮВ 2 6000 м мгла 6/0
[Ac trans Ci sp]
+23.6 +8.5 38 +24 +34 комфорт 1012.0 1012.0
12 23.02 ЮЗ 3 6000 м мгла 8/0
[Ac trans Ci sp]
+23.8 +6.2 32 +24 +27 комфорт 1011.1 1011.0
15 23.02 С 2 6000 м мгла 6/0
[Ac trans Ci sp]
+22.1 +4.6 32 +22 +22 комфорт 1010.0 1010.0
21 23.02 ЮВ 4 15 км пыль 8/1 1200 м
[Cu hum Ac lent]
+17.0 +9.8 63 +17 +17 1009.4 1009.0
00 24.02 ЮВ 3 10 км {дождь} 6/1 1200 м
[Cu hum As op]
+17.3 +12.8 75 +17 +17 1009.3 1009.0
09 24.02 Ю 3 3000 м слабый дождь 10/3 900 м
[Cu hum As op]
+17.4 +16.1 92 +17 +19 1011.4 1011.0
21 24.02 штиль 0 6000 м дымка 8/3 1050 м
[Cu hum Ac trans Ci fib]
+15.6 +14.7 94 +15 +15 1010.2 1010.0
00 25.02 штиль 0 4000 м дымка 8/3 1050 м
[Cu hum Ac trans Ci fib]
+15.0 +14.3 96 +15 +15 1009.9 1010.0

 

Местоположение метеостанции Basrah Airport (Ирак): широта 30.52 долгота 47.78 высота над уровнем моря 3 м.

В архиве по умолчанию представлена погода в Basrah Airport за последнюю неделю. Архивные данные за месяц целиком и за предыдущие месяцы, начиная с января 2011 года, Вы можете получить, выбрав интересующий диапазон дат из раскрывающегося списка и нажав кнопку "Ввод!".

Внимание! Время в таблицах - всемирное. Для получения местного времени необходимо прибавить поправку, которая в Basrah Airport равна 3 ч.

Смотрите также архив погоды в соседних городах и на ближайших метеорологических станциях:

Погода в Basrah (Ирак) (6 км)
Погода в Abadan (Иран) (48 км)
Погода в Abdaly (Кувейт) (50 км)
Погода в Sabriyah (Кувейт) (86 км)
Погода в Mitribah (Кувейт) (87 км)
Погода в Fao (Ирак) (92 км)
Погода в Bubiyan (Кувейт) (101 км)
Погода в Jal Aliyah (Кувейт) (103 км)
Погода в Ahwaz (Иран) (124 км)
Погода в Failaka Island (Кувейт) (126 км)

Пояснения к столбцам:

Ветер - указаны скорость ветра в м/с - средняя за 10 мин, порывы в срок и между сроками (в фигурных скобках) и направление, откуда дует ветер: С - северный, СВ - северо-восточный, В - восточный, ЮВ - юго-восточный, Ю - южный, ЮЗ - юго-западный, З - западный, СЗ - северо-западный.
Видимость - горизонтальная дальность видимости в метрах или километрах. При видимости от 1 до 10 км при отсутствии осадков обычно наблюдается дымка, при ухудшении видимости до 1 км и менее - туман. В сухую погоду видимость может ухудшаться дымом, пылью или мглою.
Явления - указаны атмосферные явления, наблюдавшиеся в срок или в последний час перед сроком; фигурными скобками обозначены явления, наблюдавшиеся между сроками (за 1-3 часа до срока); квадратными скобками обозначены град или гололедные отложения с указанием их диаметра в мм.
Облачность - указаны через наклонную черту общая и нижняя облачность в баллах и высота нижней границы облаков в метрах; квадратными скобками обозначены формы облаков: Ci - перистые, Cs - перисто-слоистые, Cc - перисто-кучевые, Ac - высококучевые, As - высокослоистые, Sc - слоисто-кучевые, Ns - слоисто-дождевые, Cu - кучевые, Cb - кучево-дождевые. Подробнее классификацию облаков см. в Атласе облаков (PDF).
T - Температура воздуха - температура, измеренная на высоте 2 м над землей.
Td - Температура точки росы - температура, при понижении до которой содержащийся в воздухе водяной пар достигнет насыщения.
f - Относительная влажность воздуха - влажноcть воздуха, измеренная на высоте 2 м над землей.
Te - Эффективная температура - температура, которую ощущает одетый по сезону человек в тени. Характеристика душности погоды. При расчете учитывается влияние влажности воздуха и скорости ветра на теплоощущения человека.
Tes - Эффективная температура на солнце - температура, которую ощущает человек, с поправкой на солнечный нагрев. Характеристика знойности погоды. Зависит от высоты солнца над горизонтом, облачности и скорости ветра. Ночью, в пасмурную погоду, а также при ветре 12 м/с и более поправка равна нулю.
P - Атмосферное давление - приведенное к уровню моря атмосферное давление.
Po - Атмосферное давление - измеренное на уровне метеостанции атмосферное давление.
Tmin - Минимальная температура - минимум температуры воздуха на высоте 2 м над землей.
Tmax - Максимальная температура - максимум температуры воздуха на высоте 2 м над землей.
R - Количество осадков - Количество выпавших осадков за период времени, мм. При наведении курсора мыши на число - период времени, за который выпало указанное количество осадков.
R24 - Количество осадков - Количество выпавших осадков за 24 часа, мм.
S - Снежный покров - Высота снежного покрова, см. При наведении курсора мыши на число - состояние снежного покрова и степень покрытия местности в баллах.